Dewpoint
70 71 71 72 72 72 70 69 68 68 68 68 71 71 71 74 73 70 68 63 60 57 56 58 57 56 56 56 56 56 55 54 52 54 56 58 59 58 58 57 56 54 55
71 71 72 72 73 72 72 71 70 70 70 71 71 71 71 73 73 71 69 65 61 57 54 58 58 59 57 56 55 54 54 54 54 52 53 54 57 58 56 54 54 54 54
73 73 73 73 73 73 72 72 71 70 70 69 72 71 71 72 73 72 70 68 62 59 53 58 58 57 55 54 53 53 53 54 53 53 51 53 57 57 55 52 51 51 54
69 71 73 73 73 73 73 73 72 71 70 69 69 71 71 71 72 72 71 68 62 60 55 59 59 56 54 53 53 53 53 53 52 51 50 51 55 56 54 52 49 51 52
65 67 70 73 74 74 73 73 73 73 72 70 69 70 71 71 71 72 71 66 60 57 60 56 56 56 57 56 54 52 52 50 50 49 49 49 53 54 53 53 48 47 52
70 70 72 72 73 73 73 73 74 73 73 72 70 70 70 72 68 67 69 63 57 59 55 59 58 59 59 60 58 57 54 50 48 48 48 52 53 53 52 49 50 47 47
72 72 72 73 73 73 73 74 74 74 74 73 73 72 71 70 65 65 66 61 59 56 57 58 54 57 57 57 58 57 57 56 53 49 48 48 53 54 52 49 48 47 50
69 70 72 72 74 74 74 74 74 74 74 74 74 73 72 72 64 63 64 59 60 57 58 56 54 55 56 55 52 52 51 52 52 52 50 50 54 54 52 51 48 47 50
66 67 69 71 68 71 73 74 75 74 75 74 74 74 74 72 62 61 62 60 59 56 56 56 56 54 57 56 52 52 51 51 55 56 57 56 56 55 53 50 47 46 46
65 67 68 70 71 69 68 70 74 74 74 74 75 75 70 72 59 59 63 60 58 56 57 57 58 54 56 54 52 51 50 50 51 52 52 53 53 55 53 49 48 46 44
65 68 69 70 71 72 71 70 73 73 74 74 75 74 73 71 63 57 59 62 61 58 57 56 57 54 53 52 52 52 52 52 54 51 52 52 52 54 54 49 48 48 45
66 67 69 69 71 74 73 72 72 73 72 71 72 72 72 71 62 57 57 60 60 60 58 58 56 52 51 50 52 52 52 54 52 51 50 49 49 50 53 53 50 49 49
65 67 67 68 69 70 71 72 72 72 71 70 70 70 71 71 65 57 56 58 58 62 61 59 55 50 50 51 52 52 52 55 52 50 49 48 49 50 51 50 50 50 50
64 65 65 66 66 68 69 68 67 68 68 68 69 68 68 69 66 63 63 61 59 63 60 59 55 53 52 55 54 54 54 56 52 50 49 49 50 49 49 49 48 49 51
63 63 64 65 66 65 60 57 63 56 55 63 62 63 65 67 61 54 59 62 63 61 59 58 56 55 54 52 50 53 54 56 52 51 50 50 49 49 48 49 48 51 51
62 61 62 64 64 66 65 58 51 49 48 46 46 52 58 50 47 45 47 50 52 53 58 58 56 55 53 51 48 48 49 56 53 52 51 50 50 49 48 48 48 48 51
60 60 61 62 63 64 65 65 60 52 47 45 45 45 45 45 44 43 44 46 48 52 60 59 56 54 54 51 50 49 47 51 54 53 52 52 51 50 50 48 48 51 51
58 55 58 62 61 62 62 65 64 62 61 59 50 48 46 44 42 42 43 49 55 57 59 57 56 54 55 54 51 48 49 51 54 53 53 53 52 51 50 49 49 47 50
55 55 56 60 59 58 60 60 63 61 59 57 56 52 51 46 45 45 48 59 58 59 58 58 58 57 57 57 54 52 51 53 55 54 53 53 53 52 51 50 50 48 48
53 54 54 56 56 56 57 57 58 58 57 55 53 51 52 57 59 60 59 60 60 61 60 59 59 58 58 58 54 53 54 52 55 55 54 53 54 53 52 52 51 50 50
52 52 53 54 52 53 54 54 54 55 54 53 51 48 44 58 56 55 55 54 55 58 60 61 60 60 60 57 53 54 56 55 53 56 56 54 54 53 53 53 52 52 51
51 51 51 52 51 50 50 50 51 51 50 50 50 48 45 50 50 50 50 50 50 51 52 54 61 61 59 59 57 59 61 59 56 57 57 55 54 53 53 53 52 52 52
47 48 50 48 50 48 47 47 47 48 47 47 47 47 47 47 47 47 47 47 47 47 48 50 52 54 59 63 62 61 59 58 61 55 57 55 54 54 54 53 52 52 53
45 46 47 48 48 46 46 46 45 45 45 45 45 44 44 45 45 45 45 46 46 46 46 46 47 48 50 52 55 59 62 61 59 53 55 56 55 52 54 54 53 52 52
44 45 45 45 45 46 46 45 44 44 44 44 44 45 45 45 44 44 44 45 44 44 44 44 44 44 45 46 47 48 40 35 48 49 54 57 56 54 54 55 54 54 53
44 44 45 47 45 45 44 44 44 44 44 43 43 43 43 43 43 43 43 43 43 43 43 43 43 42 42 42 40 36 35 34 44 42 57 56 55 55 54 55 55 55 53
Lifted_Index
-3 -3 -3 -3 -3 -3 -3 -2 -2 -2 -2 -3 -4 -5 -5 -6 -6 -6 -6 -6 -6 -5 -4 -3 -2 1 3 3 4 4 4 4 4 4 4 4 4 4 4 5 5 6 6
-3 -3 -3 -3 -3 -3 -3 -3 -3 -2 -2 -3 -4 -4 -5 -5 -6 -6 -6 -6 -5 -5 -4 -3 -2 1 3 4 4 4 4 4 4 5 5 5 5 5 5 5 6 6 7
-4 -4 -4 -4 -4 -4 -4 -4 -3 -3 -3 -3 -3 -4 -4 -4 -5 -5 -6 -5 -5 -4 -4 -3 -2 0 4 5 5 5 5 5 5 6 7 6 6 6 5 6 6 7 7
-4 -4 -4 -4 -4 -4 -4 -4 -4 -4 -3 -2 -2 -3 -3 -3 -4 -4 -5 -5 -5 -4 -3 -3 -3 1 5 7 6 6 5 6 6 7 8 7 7 7 6 7 7 8 7
-3 -4 -4 -4 -4 -4 -4 -4 -4 -4 -4 -3 -2 -2 -3 -3 -3 -4 -4 -5 -5 -4 -3 -3 -2 1 6 8 8 7 7 7 8 8 9 8 8 8 8 8 8 8 8
-4 -4 -4 -5 -5 -5 -4 -4 -4 -4 -4 -4 -4 -3 -3 -3 -3 -4 -4 -5 -5 -4 -3 -3 -2 2 6 9 9 8 8 8 9 9 10 9 9 9 9 9 9 8 8
-5 -5 -5 -5 -6 -6 -5 -5 -5 -5 -5 -5 -5 -5 -5 -4 -4 -4 -4 -5 -4 -4 -3 -3 -2 1 6 9 10 9 9 9 10 10 10 10 10 10 10 10 10 9 9
-5 -5 -5 -5 -5 -6 -6 -5 -6 -6 -5 -5 -6 -6 -6 -5 -5 -4 -4 -4 -4 -3 -3 -3 -2 0 4 8 9 9 9 10 10 10 11 11 10 10 10 10 10 10 10
-4 -5 -5 -5 -4 -5 -5 -6 -6 -6 -6 -6 -6 -7 -6 -6 -6 -5 -4 -4 -3 -3 -3 -3 -2 -0 3 7 9 9 9 10 10 10 11 11 11 11 11 11 11 11 10
-4 -4 -5 -5 -4 -4 -4 -4 -6 -7 -7 -7 -7 -7 -7 -6 -6 -5 -5 -4 -3 -3 -3 -3 -2 -0 3 6 8 8 8 9 10 10 10 11 11 11 11 11 11 11 11
-3 -4 -5 -5 -6 -5 -3 -3 -5 -7 -8 -8 -8 -8 -7 -7 -6 -6 -5 -5 -4 -3 -3 -2 -2 -1 2 6 7 7 8 8 9 10 10 10 11 11 12 12 11 11 11
-3 -4 -5 -6 -7 -6 -5 -4 -5 -6 -7 -8 -8 -8 -7 -7 -6 -6 -6 -5 -4 -4 -3 -2 -2 -1 1 5 7 7 7 8 9 10 10 10 11 11 12 12 12 11 11
-3 -4 -5 -6 -7 -7 -6 -6 -6 -6 -6 -7 -8 -8 -7 -7 -6 -6 -6 -5 -4 -4 -3 -2 -2 -1 1 5 7 7 7 7 8 9 10 10 10 11 11 11 11 11 11
-3 -4 -4 -5 -6 -7 -6 -6 -6 -6 -6 -7 -8 -8 -7 -6 -6 -6 -5 -5 -4 -4 -3 -2 -2 -2 0 3 6 7 7 7 8 8 10 10 10 11 11 11 11 11 11
-3 -3 -4 -5 -5 -6 -6 -6 -6 -7 -7 -7 -7 -7 -6 -6 -5 -5 -5 -4 -4 -3 -3 -2 -2 -1 -1 1 4 6 7 8 7 8 9 10 10 10 10 11 11 11 11
-2 -3 -4 -4 -5 -5 -5 -5 -6 -6 -6 -6 -6 -6 -6 -5 -5 -4 -4 -4 -3 -3 -3 -2 -1 -1 -1 -0 2 5 7 8 8 8 8 9 10 10 10 10 10 10 11
-2 -2 -3 -4 -5 -5 -5 -5 -5 -5 -5 -5 -4 -4 -4 -4 -3 -3 -2 -2 -2 -3 -3 -2 -2 -1 -0 -0 0 3 6 8 8 8 8 9 10 10 10 10 10 10 10
-1 -1 -2 -3 -4 -4 -5 -5 -5 -5 -4 -4 -3 -3 -2 -2 -2 -1 -1 -1 -1 -1 -2 -2 -2 -1 -0 -0 -0 2 6 9 9 8 7 8 9 9 10 10 10 10 10
0 -0 -1 -2 -3 -4 -4 -4 -4 -4 -4 -4 -3 -2 -2 -1 -1 -1 -0 -0 0 0 -0 -1 -1 -0 -0 -0 -0 2 7 9 9 8 7 7 7 8 9 9 9 9 9
-0 -0 -1 -2 -2 -3 -3 -4 -4 -4 -3 -3 -3 -2 -2 -1 -1 -0 -0 -0 0 1 1 0 0 0 0 -0 0 3 6 9 9 8 7 6 6 7 8 8 9 9 9
-1 -1 -1 -2 -2 -2 -3 -3 -3 -3 -3 -3 -3 -2 -2 -1 -1 -0 0 0 1 1 1 1 1 1 0 -0 0 2 6 8 8 7 6 6 6 6 7 7 8 8 8
-1 -1 -1 -1 -2 -2 -2 -3 -3 -3 -3 -3 -2 -2 -2 -1 -1 -1 -0 0 0 0 -0 -0 0 0 -0 -0 0 2 5 6 6 6 6 7 6 6 6 6 6 7 7
-0 -1 -1 -1 -1 -2 -2 -3 -3 -3 -3 -2 -2 -2 -2 -2 -1 -1 -1 -1 -1 -1 -1 -1 -1 -1 -0 -0 0 2 4 5 5 5 6 7 6 6 5 5 6 6 6
0 -0 -1 -1 -1 -1 -2 -2 -2 -3 -2 -2 -2 -2 -2 -2 -1 -1 -1 -1 -1 -1 -1 -1 -1 -1 -0 0 1 1 3 4 5 5 5 6 6 6 5 5 5 5 5
1 -0 -1 -1 -1 -1 -2 -2 -2 -2 -2 -2 -2 -1 -1 -1 -1 -1 -1 -1 -1 -1 -1 -1 -1 -0 0 0 1 1 1 2 3 4 5 5 6 6 5 4 5 5 5
1 -0 -1 -1 -1 -1 -2 -2 -2 -2 -2 -2 -2 -1 -1 -0 -0 -1 -1 -0 -0 -0 -0 -0 0 0 0 1 1 1 1 2 3 4 5 5 6 6 5 5 5 5 5